This demonstration page uses our WeatherBlox Daily Observations layout. Learn more.

Left ArrowRight Arrow

Hourly Observations for November 16, 2020

Temp ( °F °C ) Dew Point ( °F °C ) Humidity (%) Winds ( mph kmh ) Pressure ( in mb ) Visibility ( mi km ) Precip ( " mm )
12:51 am 00:51 Clear 53 11.7 14 -10 21 21 SE 9 15 30.15 1021 10 16 0.00 0.00
1:51 am 01:51 Clear 54 12.2 16 -8.9 22 22 ESE 13 20 30.15 1021 10 16 0.00 0.00
2:51 am 02:51 Clear 53 11.7 16 -8.9 23 23 SSE 10 17 30.15 1021 10 16 0.00 0.00
3:51 am 03:51 Clear 53 11.7 16 -8.9 23 23 SE 12 19 30.15 1021 10 16 0.00 0.00
4:51 am 04:51 Clear 47 8.3 15 -9.4 28 28 SSE 13 20 30.16 1021 10 16 0.00 0.00
5:51 am 05:51 Clear 52 11.1 17 -8.3 25 25 SE 15 24 30.19 1022 10 16 0.00 0.00
6:51 am 06:51 Sunny 52 11.1 17 -8.3 25 25 ESE 14 22 30.20 1023 10 16 0.00 0.00
7:51 am 07:51 Sunny 53 11.7 18 -7.8 25 25 SE 17 28 30.23 1024 10 16 0.00 0.00
8:51 am 08:51 Sunny 55 12.8 13 -10.6 19 19 SSE 15 24 30.25 1024 10 16 0.00 0.00
9:51 am 09:51 Sunny 65 18.3 19 -7.2 17 17 ESE 15 24 30.23 1024 10 16 0.00 0.00
10:51 am 10:51 Sunny 70 21.1 19 -7.2 14 14 ESE 14 22 30.23 1024 10 16 0.00 0.00
11:51 am 11:51 Sunny 73 22.8 16 -8.9 11 11 ESE 7 11 30.19 1022 10 16 0.00 0.00
12:51 pm 12:51 Sunny 76 24.4 16 -8.9 10 10 ESE 5 7 30.13 1020 10 16 0.00 0.00
1:51 pm 13:51 Sunny 78 25.6 15 -9.4 9 9 VRB 3 6 30.09 1019 10 16 0.00 0.00
2:51 pm 14:51 Sunny 79 26.1 16 -8.9 9 9 S 10 17 30.08 1019 10 16 0.00 0.00
3:51 pm 15:51 Sunny 79 26.1 16 -8.9 9 9 S 8 13 30.06 1018 10 16 0.00 0.00
4:51 pm 16:51 Sunny 77 25 17 -8.3 10 10 SSE 3 6 30.06 1018 10 16 0.00 0.00
5:51 pm 17:51 Clear 67 19.4 15 -9.4 13 13 ENE 8 13 30.07 1018 10 16 0.00 0.00
6:51 pm 18:51 Clear 64 17.8 15 -9.4 15 15 ESE 8 13 30.10 1019 10 16 0.00 0.00
7:51 pm 19:51 Clear 60 15.6 17 -8.3 19 19 E 9 15 30.12 1020 10 16 0.00 0.00
8:51 pm 20:51 Clear 61 16.1 17 -8.3 18 18 SE 9 15 30.13 1020 10 16 0.00 0.00
9:51 pm 21:51 Clear 63 17.2 17 -8.3 17 17 ESE 10 17 30.12 1020 10 16 0.00 0.00
10:51 pm 22:51 Clear 61 16.1 18 -7.8 19 19 ESE 10 17 30.13 1020 10 16 0.00 0.00
11:51 pm 23:51 Clear 58 14.4 19 -7.2 22 22 ESE 8 13 30.14 1021 10 16 0.00 0.00

Powered by AerisWeather